[[{"header":{"parameterUnit":"m.s-1","parameterCategory":1,"la1":30.2991,"la2":30.254,"lo1":-89.0895,"lo2":-89.0444,"dy":0.0017,"dx":0.0017,"nx":28,"ny":28,"refTime":"2025-01-12T09:00:00:Z","depth":0,"parameterNumber":2,"parameterNumberName":"U-component_of_WINDS"},"data":[0,0,0,0,0,0,0,0,0,0,0,0,0,0,0,0,0,0,0,0,0,0,0,0,0,0,0,0,0,0,0,0,0,0,0,0,0,0,0,0,0,0,0,0,0,0,0,0,0,0,0,0,0,0,0,0,0,0,-1.0743,-1.0744,0,-1.0814,-1.0815,-1.0816,-1.083,-1.0829,-1.0829,-1.0828,-1.0901,-1.0904,-1.0906,0,0,0,0,0,0,0,0,0,0,0,0,0,-1.0619,-1.0622,-1.0743,-1.0744,-1.0745,-1.0814,-1.0815,-1.0816,-1.083,-1.0829,-1.0829,-1.0828,-1.09,-1.0903,-1.0906,0,0,0,0,0,0,0,0,0,0,0,0,0,-1.068,-1.0622,-1.0743,-1.076,-1.0762,-1.0814,-1.0815,-1.0816,-1.083,-1.0829,-1.0829,-1.0828,-1.09,-1.0903,-1.0907,-1.0946,0,0,-1.0918,-1.092,0,0,0,0,0,0,0,0,-1.0677,-1.0685,-1.0757,-1.0759,-1.0762,-1.0812,-1.0798,-1.086,-1.083,-1.0804,-1.0828,-1.0827,-1.0872,-1.0878,-1.0893,-1.0949,-1.0953,-1.0918,-1.0921,-1.0922,-1.0923,0,0,0,0,0,0,0,-1.0672,-1.0682,-1.0771,-1.0758,-1.0761,-1.0764,-1.0772,-1.081,-1.0842,-1.0807,-1.0808,-1.0816,-1.0874,-1.089,-1.0895,-1.0954,-1.0918,-1.0921,-1.0924,-1.0925,-1.1045,-1.1046,0,0,0,0,0,0,-1.0665,-1.0678,-1.0769,-1.0773,-1.0716,-1.0767,-1.0776,-1.0797,-1.0842,-1.0848,-1.0817,-1.0816,-1.0884,-1.0891,-1.0898,-1.0946,-1.0922,-1.0926,-1.0928,-1.1044,-1.1045,-1.1046,0,0,0,0,0,0,-1.0662,-1.0673,-1.0766,-1.0726,-1.0738,-1.077,-1.0794,-1.0799,-1.0815,-1.0849,-1.0855,-1.0827,-1.0884,-1.0893,-1.0934,-1.0949,-1.0927,-1.0931,-1.1043,-1.1044,-1.1046,-1.1043,0,0,0,0,0,0,-1.0659,-1.0672,-1.0687,-1.0726,-1.074,-1.0801,-1.0795,-1.0801,-1.0821,-1.0822,-1.0861,-1.0867,-1.0884,-1.0928,-1.0937,-1.0953,-1.0933,-1.1042,-1.1044,-1.1045,-1.1042,-1.1044,-1.1046,0,0,0,0,0,-1.0654,-1.0684,-1.0688,-1.0699,-1.076,-1.0801,-1.0809,-1.0828,-1.0822,-1.0838,-1.086,-1.0865,-1.0946,-1.0932,-1.0943,-1.096,-1.1041,-1.1043,-1.1045,-1.1041,-1.1044,-1.1046,0,0,0,0,0,0,-1.0645,-1.0689,-1.0694,-1.0737,-1.0765,-1.0804,-1.0824,-1.0831,-1.0861,-1.086,-1.0883,-1.0892,-1.0931,-1.095,-1.0934,-1.1,-1.0993,-1.0997,-1.0986,-1.0989,-1.0991,-1.0985,-1.0937,0,0,0,0,0,-1.0649,-1.0679,-1.0715,-1.075,-1.0764,-1.0791,-1.081,-1.0822,-1.0853,-1.0865,-1.089,-1.0919,-1.0951,-1.0971,-1.1003,-1.1045,-1.1054,-1.1062,-1.1065,-1.1066,-1.1069,-1.1093,-1.1097,-1.1053,-1.1053,-1.1053,0,0,-1.0655,-1.0683,-1.07,-1.0749,-1.0772,-1.0802,-1.0801,-1.0834,-1.0857,-1.087,-1.091,-1.0929,-1.0963,-1.1005,-1.1025,-1.1022,-1.1083,-1.1069,-1.107,-1.1072,-1.1095,-1.1099,-1.1103,-1.1055,-1.1055,-1.1054,0,0,-1.0682,-1.0707,-1.0738,-1.0761,-1.0797,-1.0815,-1.0822,-1.086,-1.0873,-1.0914,-1.0924,-1.0952,-1.1006,-1.103,-1.1049,-1.1086,-1.1092,-1.1096,-1.1106,-1.1129,-1.1132,-1.1135,-1.1147,-1.1152,-1.1099,-1.1099,-1.1099,0,-1.0686,-1.0732,-1.0753,-1.0785,-1.0805,-1.0819,-1.085,-1.0872,-1.0916,-1.093,-1.0926,-1.0995,-1.1019,-1.1066,-1.1075,-1.109,-1.1099,-1.1091,-1.113,-1.1133,-1.1137,-1.1148,-1.1153,-1.1099,-1.1099,-1.1099,-1.1099,0,-1.0735,-1.0767,-1.0788,-1.0829,-1.0853,-1.0884,-1.0909,-1.093,-1.0941,-1.0959,-1.1,-1.103,-1.1067,-1.1079,-1.109,-1.1128,-1.1125,-1.1126,-1.1118,-1.114,-1.1152,-1.1157,-1.1099,-1.1099,-1.1099,-1.1099,0,0,-1.0757,-1.081,-1.0817,-1.0836,-1.0876,-1.0902,-1.0934,-1.097,-1.0988,-1.1018,-1.1045,-1.1091,-1.1092,-1.1113,-1.1127,-1.1147,-1.1173,-1.1145,-1.1146,-1.1148,-1.1216,-1.1214,-1.1219,-1.1178,-1.1179,-1.1179,-1.1212,0,-1.0789,-1.0846,-1.0865,-1.0913,-1.0942,-1.0956,-1.0984,-1.1012,-1.103,-1.1058,-1.1079,-1.111,-1.111,-1.1123,-1.1143,-1.1165,-1.1186,-1.1163,-1.1202,-1.1203,-1.1192,-1.1225,-1.1224,-1.1253,-1.1217,-1.1218,-1.1219,0,-1.0833,-1.0863,-1.0913,-1.095,-1.0963,-1.0987,-1.1022,-1.1049,-1.1081,-1.1093,-1.1117,-1.1129,-1.1163,-1.1155,-1.1202,-1.1186,-1.1203,-1.1217,-1.1218,-1.1221,-1.1211,-1.1228,-1.1263,-1.1267,-1.1226,-1.1225,-1.1225,0,-1.0843,-1.0896,-1.0933,-1.0949,-1.0993,-1.101,-1.1029,-1.106,-1.108,-1.1111,-1.1124,-1.1159,-1.1177,-1.1203,-1.1224,-1.1217,-1.1269,-1.1263,-1.1279,-1.1279,-1.1289,-1.1288,-1.1326,-1.1302,-1.1302,-1.1302,-1.1302,0,-1.0875,-1.0905,-1.0938,-1.0961,-1.0995,-1.1017,-1.105,-1.107,-1.1098,-1.1124,-1.1139,-1.1163,-1.119,-1.1218,-1.1235,-1.1271,-1.1279,-1.129,-1.1294,-1.1288,-1.1286,-1.1298,-1.1296,-1.1303,-1.1303,-1.1303,-1.1302,0,-1.0891,-1.0915,-1.0956,-1.0994,-1.1004,-1.1027,-1.106,-1.1082,-1.1102,-1.1135,-1.1144,-1.1175,-1.1209,-1.1232,-1.1276,-1.1288,-1.1326,-1.133,-1.1315,-1.1316,-1.1331,-1.1329,-1.1378,-1.1385,-1.1357,-1.1357,-1.1358,0,-1.0909,-1.0933,-1.0973,-1.0992,-1.1011,-1.1041,-1.1062,-1.1085,-1.1106,-1.1144,-1.1162,-1.1197,-1.1226,-1.128,-1.1305,-1.1339,-1.1343,-1.1358,-1.1348,-1.1342,-1.1342,-1.134,-1.1342,-1.1359,-1.1359,-1.136,-1.136,0,-1.0939,-1.0949,-1.0979,-1.1013,-1.1037,-1.1065,-1.1093,-1.1108,-1.1136,-1.1159,-1.1193,-1.1216,-1.1261,-1.1295,-1.1331,-1.1351,-1.136,-1.1363,-1.1368,-1.1362,-1.1351,-1.1356,-1.1317,-1.1361,-1.1361,-1.1361,-1.1361,-1.1361,-1.0956,-1.0977,-1.1009,-1.1041,-1.1065,-1.109,-1.1113,-1.1135,-1.1165,-1.1202,-1.1215,-1.125,-1.1282,-1.1331,-1.1351,-1.138,-1.1379,-1.1387,-1.1389,-1.139,-1.1389,-1.1348,-1.1387,-1.1387,-1.1387,-1.1387,-1.1387,0,-1.0985,-1.1006,-1.1036,-1.1074,-1.11,-1.1107,-1.1138,-1.1159,-1.119,-1.1219,-1.1247,-1.1287,-1.132,-1.1349,-1.1383,-1.14,-1.1405,-1.1409,-1.1407,-1.1411,-1.1389,-1.138,-1.1404,-1.1404,-1.1404,-1.1404,-1.1404,-1.1404,-1.1004,-1.1039,-1.1054,-1.1101,-1.1122,-1.1157,-1.1175,-1.1198,-1.1221,-1.1265,-1.1293,-1.1311,-1.134,-1.1376,-1.1407,-1.1415,-1.1426,-1.1429,-1.1437,-1.1415,-1.1413,-1.1411,-1.1403,-1.1431,-1.1431,-1.1457,-1.1457,-1.1457]},{"header":{"parameterUnit":"m.s-1","parameterCategory":1,"la1":30.2991,"la2":30.254,"lo1":-89.0895,"lo2":-89.0444,"dy":0.0017,"dx":0.0017,"nx":28,"ny":28,"refTime":"2025-01-12T09:00:00:Z","depth":0,"parameterNumber":3,"parameterNumberName":"V-component_of_WINDS"},"data":[0,0,0,0,0,0,0,0,0,0,0,0,0,0,0,0,0,0,0,0,0,0,0,0,0,0,0,0,0,0,0,0,0,0,0,0,0,0,0,0,0,0,0,0,0,0,0,0,0,0,0,0,0,0,0,0,0,0,-0.3592,-0.3593,0,-0.3625,-0.3625,-0.3625,-0.3674,-0.3675,-0.3676,-0.3677,-0.3708,-0.3708,-0.3708,0,0,0,0,0,0,0,0,0,0,0,0,0,-0.3571,-0.3571,-0.3592,-0.3593,-0.3593,-0.3625,-0.3625,-0.3626,-0.3674,-0.3675,-0.3676,-0.3677,-0.3708,-0.3708,-0.3708,0,0,0,0,0,0,0,0,0,0,0,0,0,-0.3589,-0.3571,-0.3592,-0.3621,-0.3624,-0.3625,-0.3625,-0.3626,-0.3674,-0.3675,-0.3677,-0.3678,-0.3708,-0.3708,-0.3708,-0.3682,0,0,-0.3708,-0.3708,0,0,0,0,0,0,0,0,-0.3588,-0.359,-0.3616,-0.3619,-0.3622,-0.3647,-0.3629,-0.3645,-0.3674,-0.3655,-0.3677,-0.3678,-0.3687,-0.3688,-0.3692,-0.3684,-0.3685,-0.3708,-0.3708,-0.3708,-0.3708,0,0,0,0,0,0,0,-0.3587,-0.3589,-0.3605,-0.3617,-0.362,-0.3632,-0.3636,-0.3632,-0.3663,-0.3657,-0.366,-0.3664,-0.3688,-0.3691,-0.3693,-0.3686,-0.3708,-0.3708,-0.3708,-0.3708,-0.3658,-0.3657,0,0,0,0,0,0,-0.3581,-0.3587,-0.3604,-0.3606,-0.3608,-0.3631,-0.3636,-0.3638,-0.3663,-0.3668,-0.3662,-0.3666,-0.3691,-0.3693,-0.3694,-0.3665,-0.3708,-0.3708,-0.3708,-0.3659,-0.3658,-0.3656,0,0,0,0,0,0,-0.3581,-0.3582,-0.3603,-0.3598,-0.3601,-0.363,-0.3632,-0.3638,-0.3641,-0.3668,-0.3673,-0.366,-0.3692,-0.3694,-0.3685,-0.3667,-0.3708,-0.3708,-0.3661,-0.3659,-0.3657,-0.3606,0,0,0,0,0,0,-0.358,-0.3582,-0.3573,-0.3597,-0.3601,-0.3593,-0.3631,-0.3637,-0.3641,-0.3645,-0.3667,-0.3671,-0.3693,-0.3685,-0.3685,-0.3667,-0.3709,-0.3663,-0.366,-0.3658,-0.361,-0.3603,-0.3597,0,0,0,0,0,-0.3579,-0.3557,-0.3572,-0.3574,-0.359,-0.3592,-0.3594,-0.362,-0.3639,-0.363,-0.3647,-0.3671,-0.3669,-0.3683,-0.3684,-0.3666,-0.3664,-0.3661,-0.3658,-0.3613,-0.3604,-0.3597,0,0,0,0,0,0,-0.3528,-0.356,-0.3577,-0.3563,-0.3574,-0.36,-0.3589,-0.3611,-0.3617,-0.362,-0.3652,-0.3656,-0.3643,-0.3654,-0.367,-0.3643,-0.367,-0.3667,-0.3635,-0.3628,-0.3621,-0.3618,-0.3709,0,0,0,0,0,-0.3515,-0.3515,-0.3543,-0.3527,-0.3532,-0.356,-0.3561,-0.358,-0.3593,-0.3598,-0.3615,-0.3626,-0.3629,-0.3629,-0.3632,-0.3612,-0.3617,-0.3601,-0.3594,-0.3589,-0.3585,-0.3575,-0.3567,-0.3646,-0.3646,-0.3646,0,0,-0.3489,-0.3506,-0.3504,-0.3517,-0.3528,-0.3526,-0.3563,-0.356,-0.3558,-0.3598,-0.359,-0.3603,-0.3618,-0.3603,-0.3597,-0.3611,-0.3565,-0.3585,-0.358,-0.358,-0.3571,-0.3563,-0.3556,-0.3644,-0.3645,-0.3645,0,0,-0.3438,-0.3452,-0.344,-0.3451,-0.3468,-0.3487,-0.3484,-0.3507,-0.3517,-0.351,-0.354,-0.3539,-0.3542,-0.3551,-0.3556,-0.351,-0.3531,-0.351,-0.3476,-0.3465,-0.3459,-0.3454,-0.3436,-0.343,-0.3507,-0.3507,-0.3507,0,-0.3402,-0.3401,-0.3431,-0.3425,-0.343,-0.3467,-0.3455,-0.3464,-0.3481,-0.3483,-0.3499,-0.3504,-0.3517,-0.3504,-0.3493,-0.3496,-0.3493,-0.3507,-0.3458,-0.3453,-0.3448,-0.3432,-0.3425,-0.3504,-0.3505,-0.3505,-0.3505,0,-0.3356,-0.3354,-0.3343,-0.3358,-0.3362,-0.3353,-0.3381,-0.3382,-0.3401,-0.3417,-0.341,-0.3427,-0.3434,-0.3433,-0.3451,-0.3423,-0.3431,-0.3452,-0.348,-0.3437,-0.3422,-0.3416,-0.35,-0.3501,-0.3502,-0.3503,0,0,-0.3272,-0.3306,-0.3301,-0.3309,-0.3331,-0.333,-0.3323,-0.3331,-0.333,-0.3341,-0.3335,-0.3337,-0.3357,-0.3362,-0.3382,-0.3373,-0.3335,-0.3396,-0.3397,-0.3383,-0.3303,-0.3286,-0.3278,-0.335,-0.3349,-0.3348,-0.3302,0,-0.3225,-0.3215,-0.3242,-0.3225,-0.3223,-0.3259,-0.3253,-0.3266,-0.3281,-0.3282,-0.33,-0.33,-0.3327,-0.3331,-0.3324,-0.3341,-0.3319,-0.3345,-0.3344,-0.3343,-0.3337,-0.3271,-0.3252,-0.3207,-0.3296,-0.3295,-0.3295,0,-0.3168,-0.3177,-0.3159,-0.3183,-0.3183,-0.3177,-0.3186,-0.3187,-0.3202,-0.3214,-0.3221,-0.3245,-0.3239,-0.3267,-0.3259,-0.3276,-0.3278,-0.3286,-0.3285,-0.3284,-0.3315,-0.3267,-0.3194,-0.3186,-0.3286,-0.3287,-0.3287,0,-0.3107,-0.3115,-0.3105,-0.3111,-0.3138,-0.3133,-0.3144,-0.3161,-0.3163,-0.3172,-0.3174,-0.3181,-0.3185,-0.319,-0.3214,-0.3233,-0.3203,-0.3233,-0.3212,-0.3211,-0.3202,-0.3202,-0.3126,-0.3206,-0.3206,-0.3206,-0.3206,0,-0.3051,-0.3038,-0.3078,-0.3072,-0.3059,-0.3091,-0.3077,-0.3092,-0.3106,-0.3103,-0.3135,-0.3132,-0.3166,-0.3166,-0.3185,-0.3175,-0.3176,-0.3185,-0.319,-0.3181,-0.318,-0.3181,-0.3184,-0.3204,-0.3205,-0.3205,-0.3205,0,-0.2979,-0.3006,-0.2998,-0.3025,-0.3031,-0.302,-0.3043,-0.3039,-0.3057,-0.3053,-0.3054,-0.3082,-0.3084,-0.311,-0.3117,-0.3131,-0.3112,-0.3123,-0.3106,-0.3109,-0.3086,-0.3087,-0.3007,-0.2998,-0.3084,-0.3083,-0.3083,0,-0.294,-0.2932,-0.2958,-0.2959,-0.2969,-0.2969,-0.2973,-0.3004,-0.3006,-0.3023,-0.3016,-0.3021,-0.3026,-0.3027,-0.3048,-0.3053,-0.3065,-0.3036,-0.3065,-0.3057,-0.3062,-0.3062,-0.3061,-0.3029,-0.3028,-0.3027,-0.3027,0,-0.2868,-0.2882,-0.2886,-0.2895,-0.2898,-0.2907,-0.2917,-0.2916,-0.295,-0.2951,-0.2953,-0.2957,-0.2965,-0.2969,-0.2978,-0.2989,-0.3013,-0.3018,-0.3013,-0.3002,-0.2992,-0.2996,-0.3088,-0.3019,-0.302,-0.302,-0.3021,-0.3021,-0.2811,-0.2805,-0.2823,-0.2826,-0.2838,-0.2846,-0.2843,-0.2862,-0.2865,-0.2874,-0.2893,-0.2892,-0.2908,-0.2923,-0.2932,-0.2932,-0.2946,-0.2939,-0.2937,-0.2934,-0.2929,-0.2994,-0.2934,-0.2934,-0.2934,-0.2935,-0.2935,0,-0.2739,-0.2752,-0.2756,-0.2769,-0.2772,-0.2796,-0.2809,-0.2809,-0.2809,-0.2822,-0.2826,-0.2829,-0.2833,-0.2855,-0.2861,-0.2857,-0.2868,-0.2857,-0.2857,-0.2859,-0.2916,-0.2919,-0.2848,-0.2848,-0.2848,-0.2848,-0.2848,-0.2848,-0.2701,-0.2692,-0.2708,-0.2705,-0.2719,-0.2719,-0.2724,-0.2732,-0.2743,-0.2745,-0.2749,-0.2763,-0.278,-0.2788,-0.2792,-0.2799,-0.2799,-0.2784,-0.2794,-0.2847,-0.2855,-0.2863,-0.2866,-0.2784,-0.2784,-0.2736,-0.2736,-0.2735]}]]